Weather History for Asheville, NC

Change the Weather History Date:

Sunday, November 25, 2007

  Actual Average Record
Temperature  
Mean Temperature 41 °F 44 °F  
Max Temperature 43 °F 55 °F 74 °F (1990)
Min Temperature 38 °F 33 °F 1 °F (1950)
Degree Days  
Heating Degree Days 24 21  
Month to date heating degree days 471 424  
Since 1 July heating degree days 703 759  
Cooling Degree Days 0 0  
Month to date cooling degree days 0 0  
Year to date cooling degree days 984 862  
Moisture  
Dew Point 36 °F    
Average Humidity 77    
Maximum Humidity 100    
Minimum Humidity 54    
Precipitation  
Precipitation 0.16 in 0.14 in 1.87 in (1979)
Month to date precipitation 1.13 2.97  
Year to date precipitation 29.97 41.30  
Snow  
Snow 0.00 in 0.00 in 0.40 in (1930)
Month to date snowfall T 0.1  
Since 1 July snowfall T 0.1  
Since 1 September snowfall T 0.1  
Snow Depth -    
Sea Level Pressure  
Sea Level Pressure 30.26 in    
Wind  
Wind Speed 4 mph (SSE)    
Max Wind Speed 12 mph    
Max Gust Speed 14 mph    
Visibility 5 miles    
Events Rain    
T = Trace of Precipitation, MM = Missing Value Source: NWS Daily Summary

Daily Weather History Graph

Daily Weather History Graph

Search for Another Location

Airport:

Trip Planner

Search our weather history database for the weather conditions in past years. The results will help you decide how hot, cold, wet, or windy it might be!

Date:

Astronomy

Nov. 25, 2007 Rise Set
Actual Time 7:14 AM EST 5:18 PM EST
Civil Twilight 6:47 AM EST 5:46 PM EST
Nautical Twilight 6:16 AM EST 6:17 PM EST
Astronomical Twilight 5:45 AM EST 6:48 PM EST
Moon 6:10 PM EST (11/25) 8:38 AM EST (11/25)
Length of Visible Light 10h 59m
Length of Day
10h 03m
Full, 98% of the Moon is Illuminated
Nov 25
Full
Dec 1
Last Quarter
Dec 9
New
Dec 17
First Quarter
Dec 23
Full

Hourly Weather History & Observations

Time (EST) Temp. Windchill Dew Point Humidity Pressure Visibility Wind Dir Wind Speed Gust Speed Precip Events Conditions
12:54 AM 37.9 °F - 23.0 °F 55% 30.33 in 10.0 mi Calm Calm - N/A   Overcast
1:54 AM 37.9 °F - 23.0 °F 55% 30.30 in 10.0 mi Calm Calm - N/A   Overcast
2:54 AM 37.9 °F 35.5 °F 23.0 °F 55% 30.30 in 10.0 mi SSE 3.5 mph - N/A   Overcast
3:54 AM 39.0 °F 36.8 °F 24.1 °F 55% 30.30 in 10.0 mi SSE 3.5 mph - N/A   Overcast
4:12 AM 39.2 °F - 24.8 °F 56% 30.28 in 10.0 mi Calm Calm - N/A   Overcast
4:54 AM 39.0 °F - 24.1 °F 55% 30.29 in 10.0 mi Calm Calm - N/A   Overcast
5:54 AM 39.0 °F - 24.1 °F 55% 30.30 in 10.0 mi Calm Calm - N/A   Overcast
6:54 AM 39.2 °F - 28.4 °F 65% 30.30 in 10.0 mi Calm Calm - N/A   Overcast
7:54 AM 39.0 °F 36.8 °F 30.0 °F 70% 30.32 in 10.0 mi South 3.5 mph - N/A   Overcast
8:54 AM 39.0 °F 36.8 °F 30.9 °F 73% 30.32 in 10.0 mi SSW 3.5 mph - N/A   Overcast
9:30 AM 39.2 °F 37.0 °F 30.2 °F 70% 30.30 in 10.0 mi South 3.5 mph - N/A   Overcast
9:54 AM 39.9 °F 35.8 °F 32.0 °F 73% 30.31 in 10.0 mi SSE 5.8 mph - N/A   Overcast
10:54 AM 39.9 °F 36.7 °F 35.1 °F 83% 30.31 in 10.0 mi Variable 4.6 mph - 0.00 in   Overcast
2:47 PM 42.8 °F 39.3 °F 42.8 °F 100% 30.23 in 0.8 mi SSE 5.8 mph - 0.00 in Rain Light Rain
2:54 PM 42.1 °F 38.4 °F 42.1 °F 100% 30.25 in 0.8 mi SSE 5.8 mph - 0.00 in   Overcast
3:18 PM 42.8 °F 38.6 °F 42.8 °F 100% 30.24 in 1.0 mi SSE 6.9 mph - 0.01 in Rain Light Rain
3:30 PM 42.8 °F 38.6 °F 42.8 °F 100% 30.23 in 1.8 mi SSE 6.9 mph - 0.01 in Rain Light Rain
6:01 PM 41.0 °F 34.7 °F 39.2 °F 93% 30.23 in 2.5 mi South 10.4 mph - 0.00 in Rain Light Rain
6:12 PM 41.0 °F 36.4 °F 39.2 °F 93% 30.23 in 3.0 mi SSE 6.9 mph - 0.01 in Rain Light Rain
6:23 PM 41.0 °F 35.8 °F 41.0 °F 100% 30.24 in 3.0 mi SSE 8.1 mph - 0.02 in Rain Light Rain
6:54 PM 41.0 °F 38.0 °F 39.9 °F 96% 30.25 in 3.0 mi SSE 4.6 mph - 0.03 in Rain Light Rain
7:09 PM 41.0 °F 37.1 °F 41.0 °F 100% 30.24 in 0.8 mi South 5.8 mph - 0.00 in Rain Light Rain
7:11 PM 41.0 °F 36.4 °F 41.0 °F 100% 30.24 in 1.0 mi SSE 6.9 mph - 0.01 in Rain Light Rain
7:14 PM 41.0 °F 36.4 °F 39.2 °F 93% 30.23 in 1.0 mi SSE 6.9 mph - 0.01 in Rain Light Rain
7:17 PM 41.0 °F 37.1 °F 39.2 °F 93% 30.24 in 1.0 mi South 5.8 mph - 0.01 in Rain Light Rain
7:54 PM 41.0 °F 37.1 °F 41.0 °F 100% 30.25 in 1.0 mi SSE 5.8 mph - 0.02 in Rain Light Rain
8:54 PM 42.1 °F - 42.1 °F 100% 30.25 in 1.0 mi Calm Calm - 0.00 in   Overcast
9:39 PM 42.8 °F 38.6 °F 42.8 °F 100% 30.22 in 1.0 mi SE 6.9 mph - N/A   Overcast
9:54 PM 42.1 °F 39.2 °F 42.1 °F 100% 30.23 in 1.0 mi ESE 4.6 mph - N/A   Overcast
10:19 PM 42.8 °F 39.3 °F 42.8 °F 100% 30.21 in 1.5 mi SE 5.8 mph - 0.01 in   Overcast
10:54 PM 43.0 °F 40.3 °F 43.0 °F 100% 30.22 in 1.5 mi SSE 4.6 mph - 0.01 in   Overcast
11:01 PM 42.8 °F 38.6 °F 42.8 °F 100% 30.21 in 7.0 mi SSE 6.9 mph - N/A   Overcast
11:13 PM 42.8 °F 39.3 °F 42.8 °F 100% 30.19 in 4.0 mi SSE 5.8 mph - 0.00 in Rain Light Rain